Lawrenceville, IL

4:45 PM CST on December 03, 2016 (GMT -0600)
Lawrenceville-Vincennes International

Weather History for KLWV - April, 2013

Change the Weather History Date:

Wednesday, April 10, 2013

  Actual Average Record
Temperature  
Mean Temperature 73 °F 54 °F  
Max Temperature 85 °F 65 °F 85 °F (2013)
Min Temperature 61 °F 43 °F 28 °F (2007)
Degree Days  
Heating Degree Days 0 12  
Month to date heating degree days 117 132  
Since 1 July heating degree days 4632 4429  
Cooling Degree Days 8 1  
Month to date cooling degree days 16 4  
Year to date cooling degree days 16 6  
Growing Degree Days 22 (Base 50)    
Moisture  
Dew Point 63 °F    
Average Humidity 72    
Maximum Humidity 93    
Minimum Humidity 51    
Precipitation  
Precipitation 0.58 in 0.12 in 0.79 in (1990)
Month to date precipitation 1.21 1.12  
Year to date precipitation 13.02 8.94  
Sea Level Pressure  
Sea Level Pressure 29.81 in    
Wind  
Wind Speed 14 mph (South)    
Max Wind Speed 31 mph    
Max Gust Speed 37 mph    
Visibility 8 miles    
Events Rain , Thunderstorm    
T = Trace of Precipitation, MM = Missing Value Source: NWS Daily Summary

Daily Weather History Graph

Daily Weather History Graph

Search for Another Location

Airport or City:

Trip Planner

Search our weather history database for the weather conditions in past years. The results will help you decide how hot, cold, wet, or windy it might be!

Date:

Astronomy

Apr. 10, 2013 Rise Set
Actual Time 6:21 AM CDT 7:22 PM CDT
Civil Twilight 5:53 AM CDT 7:50 PM CDT
Nautical Twilight 5:21 AM CDT 8:22 PM CDT
Astronomical Twilight 4:47 AM CDT 8:56 PM CDT
Moon 6:17 AM CDT (4/10) 7:57 PM CDT (4/10)
Length of Visible Light 13h 56m
Length of Day
13h 01m
New Moon, 0% of the Moon is Illuminated
Apr 10
New Moon
Apr 18
First Quarter
Apr 25
Full
May 2
Last Quarter
May 9
New

Hourly Weather History & Observations

Time (CDT) Temp. Heat Index Dew Point Humidity Pressure Visibility Wind Dir Wind Speed Gust Speed Precip Events Conditions
12:53 AM 63.0 °F - 60.1 °F 90% 29.88 in 7.0 mi SSE 3.5 mph - N/A   Clear
1:53 AM 62.1 °F - 59.0 °F 90% 29.87 in 7.0 mi SSE 5.8 mph - N/A   Clear
2:53 AM 62.1 °F - 60.1 °F 93% 29.86 in 6.0 mi SSE 6.9 mph - N/A   Scattered Clouds
3:53 AM 62.1 °F - 60.1 °F 93% 29.87 in 6.0 mi South 8.1 mph - N/A   Clear
4:53 AM 64.0 °F - 61.0 °F 90% 29.86 in 6.0 mi South 9.2 mph - N/A   Scattered Clouds
5:53 AM 64.9 °F - 62.1 °F 90% 29.86 in 7.0 mi South 11.5 mph - N/A   Overcast
6:53 AM 64.9 °F - 62.1 °F 90% 29.87 in 5.0 mi South 11.5 mph - N/A   Mostly Cloudy
7:53 AM 69.1 °F - 64.0 °F 84% 29.89 in 6.0 mi South 15.0 mph - N/A   Haze
8:53 AM 72.0 °F - 64.9 °F 78% 29.88 in 6.0 mi South 16.1 mph - N/A   Haze
9:53 AM 75.9 °F - 64.9 °F 69% 29.88 in 7.0 mi SSW 23.0 mph - N/A   Mostly Cloudy
10:53 AM 77.0 °F - 64.9 °F 66% 29.90 in 7.0 mi SSW 20.7 mph 28.8 mph N/A   Mostly Cloudy
11:53 AM 80.1 °F 82.1 °F 66.0 °F 62% 29.88 in 8.0 mi SSW 18.4 mph 26.5 mph N/A   Overcast
12:53 PM 82.0 °F 83.8 °F 64.9 °F 56% 29.86 in 9.0 mi SSW 25.3 mph 32.2 mph N/A   Mostly Cloudy
1:53 PM 82.0 °F 83.4 °F 64.0 °F 54% 29.84 in 9.0 mi SW 24.2 mph 36.8 mph N/A   Mostly Cloudy
2:53 PM 82.0 °F 83.4 °F 64.0 °F 54% 29.81 in 9.0 mi SSW 23.0 mph - 0.00 in Rain Light Rain
3:53 PM 81.0 °F 82.5 °F 64.0 °F 56% 29.79 in 8.0 mi SSW 15.0 mph - 0.00 in   Mostly Cloudy
4:53 PM 82.9 °F 84.0 °F 63.0 °F 51% 29.76 in 9.0 mi SSW 19.6 mph - N/A   Clear
5:53 PM 79.0 °F - 64.0 °F 60% 29.74 in 9.0 mi South 12.7 mph - N/A   Scattered Clouds
6:53 PM 77.0 °F - 63.0 °F 62% 29.72 in 9.0 mi South 10.4 mph - N/A   Clear
7:53 PM 71.1 °F - 62.1 °F 73% 29.71 in 9.0 mi SSE 10.4 mph - N/A   Clear
8:53 PM 70.0 °F - 62.1 °F 76% 29.71 in 9.0 mi South 8.1 mph - N/A   Clear
9:53 PM 69.1 °F - 62.1 °F 78% 29.70 in 10.0 mi South 10.4 mph - N/A   Clear
10:53 PM 71.1 °F - 61.0 °F 70% 29.70 in 10.0 mi South 11.5 mph - N/A   Partly Cloudy
11:37 PM 71.6 °F - 60.8 °F 69% 29.73 in 10.0 mi SW 9.2 mph - 0.00 in Rain , Thunderstorm Light Rain
11:53 PM 72.0 °F - 62.1 °F 71% 29.71 in 10.0 mi WSW 9.2 mph - 0.00 in Rain Light Rain